����,���ϕ���(m/s),���ϕ���,�ő�u�ԕ���(m/s),�ő啗��������,�C��(��),���x(%),10���Ԉړ��ώZ�J��(mm),1���Ԉړ��ώZ�J��(mm),���J��(mm),�݌v�J��(mm),����(���ώZ)(MJ/m2),����(���ώZ)(min),���n�C��(hPa),�C�ʋC��(hPa)
2022-07-25T00:00:00+09:00,4.3,��쐼,6.4,��쐼,25.5,84.8,0,0,0,0,26.76,555,996.6,1009.9
2022-07-25T00:01:00+09:00,4.4,��쐼,6.4,��쐼,25.5,84.9,0,0,0,0,0,0,996.6,1009.9
2022-07-25T00:02:00+09:00,4.5,��쐼,6.7,��쐼,25.5,84.9,0,0,0,0,0,0,996.6,1009.9
2022-07-25T00:03:00+09:00,4.4,��쐼,6.7,��쐼,25.5,84.8,0,0,0,0,0,0,996.6,1009.9
2022-07-25T00:04:00+09:00,4.4,��쐼,6.7,��쐼,25.5,84.8,0,0,0,0,0,0,996.6,1009.9
2022-07-25T00:05:00+09:00,4.4,��쐼,6.7,��쐼,25.5,84.7,0,0,0,0,0,0,996.6,1009.9
2022-07-25T00:06:00+09:00,4.4,��쐼,6.7,��쐼,25.5,84.8,0,0,0,0,0,0,996.7,1010
2022-07-25T00:07:00+09:00,4.4,��쐼,6.7,��쐼,25.5,85,0,0,0,0,0,0,996.7,1010
2022-07-25T00:08:00+09:00,4.3,��쐼,6.7,��쐼,25.5,85.1,0,0,0,0,0,0,996.7,1010
2022-07-25T00:09:00+09:00,4.4,��쐼,6.7,��쐼,25.5,85.1,0,0,0,0,0,0,996.6,1009.9
2022-07-25T00:10:00+09:00,4.3,��쐼,6.7,��쐼,25.5,85,0,0,0,0,0,0,996.6,1009.9
2022-07-25T00:11:00+09:00,4.2,��쐼,6.7,��쐼,25.5,85.1,0,0,0,0,0,0,996.6,1009.9
2022-07-25T00:12:00+09:00,4,��쐼,5.8,��,25.5,85.2,0,0,0,0,0,0,996.6,1009.9
2022-07-25T00:13:00+09:00,4,��쐼,5.8,��,25.5,85.3,0,0,0,0,0,0,996.7,1010
2022-07-25T00:14:00+09:00,4,��쐼,5.9,��쐼,25.4,85.3,0,0,0,0,0,0,996.7,1010
2022-07-25T00:15:00+09:00,4,��쐼,6.1,��쐼,25.4,85.3,0,0,0,0,0,0,996.7,1010
2022-07-25T00:16:00+09:00,4,��쐼,6.1,��쐼,25.4,85.5,0,0,0,0,0,0,996.7,1010
2022-07-25T00:17:00+09:00,4.2,��쐼,6.1,��쐼,25.5,85.6,0,0,0,0,0,0,996.7,1010
2022-07-25T00:18:00+09:00,4.2,��쐼,6.1,��쐼,25.5,85.7,0,0,0,0,0,0,996.7,1010
2022-07-25T00:19:00+09:00,4.2,��쐼,6.1,��쐼,25.5,85.8,0,0,0,0,0,0,996.6,1009.9
2022-07-25T00:20:00+09:00,4.3,��쐼,6.1,��쐼,25.5,85.7,0,0,0,0,0,0,996.7,1010
2022-07-25T00:21:00+09:00,4.3,��쐼,6.1,��쐼,25.5,85.8,0,0,0,0,0,0,996.7,1010
2022-07-25T00:22:00+09:00,4.2,��쐼,6.1,��쐼,25.5,85.7,0,0,0,0,0,0,996.6,1009.9
2022-07-25T00:23:00+09:00,4.2,��쐼,6.1,��쐼,25.4,85.7,0,0,0,0,0,0,996.6,1009.9
2022-07-25T00:24:00+09:00,4.3,��쐼,6.6,��쐼,25.4,85.9,0,0,0,0,0,0,996.6,1009.9
2022-07-25T00:25:00+09:00,4.2,��쐼,6.8,��쐼,25.4,86.2,0,0,0,0,0,0,996.6,1009.9
2022-07-25T00:26:00+09:00,4.2,��쐼,6.8,��쐼,25.4,86.2,0,0,0,0,0,0,996.7,1010
2022-07-25T00:27:00+09:00,4.1,��쐼,6.8,��쐼,25.5,86.4,0,0,0,0,0,0,996.7,1010
2022-07-25T00:28:00+09:00,4,��쐼,6.8,��쐼,25.4,86.3,0,0,0,0,0,0,996.7,1010
2022-07-25T00:29:00+09:00,4,��쐼,6.8,��쐼,25.4,86.3,0,0,0,0,0,0,996.7,1010
2022-07-25T00:30:00+09:00,3.9,��쐼,6.8,��쐼,25.4,86.4,0,0,0,0,0,0,996.8,1010.1
2022-07-25T00:31:00+09:00,3.9,��쐼,6.8,��쐼,25.4,86.4,0,0,0,0,0,0,996.8,1010.1
2022-07-25T00:32:00+09:00,4,��쐼,6.8,��쐼,25.4,86.4,0,0,0,0,0,0,996.8,1010.1
2022-07-25T00:33:00+09:00,4.1,��쐼,6.8,��쐼,25.4,86.4,0,0,0,0,0,0,996.7,1010
2022-07-25T00:34:00+09:00,3.9,��쐼,6.8,��쐼,25.4,86.6,0,0,0,0,0,0,996.8,1010.1
2022-07-25T00:35:00+09:00,4,��쐼,6.8,��,25.4,86.6,0,0,0,0,0,0,996.7,1010
2022-07-25T00:36:00+09:00,3.9,��쐼,6.8,��,25.4,86.6,0,0,0,0,0,0,996.7,1010
2022-07-25T00:37:00+09:00,4,��쐼,6.8,��,25.4,86.5,0,0,0,0,0,0,996.8,1010.1
2022-07-25T00:38:00+09:00,3.9,��쐼,6.8,��,25.4,86.4,0,0,0,0,0,0,996.7,1010
2022-07-25T00:39:00+09:00,4,��쐼,6.8,��,25.4,86.4,0,0,0,0,0,0,996.7,1010
2022-07-25T00:40:00+09:00,4.1,��쐼,6.8,��,25.4,86.6,0,0,0,0,0,0,996.7,1010
2022-07-25T00:41:00+09:00,4.2,��쐼,6.8,��,25.4,86.7,0,0,0,0,0,0,996.7,1010
2022-07-25T00:42:00+09:00,4.2,��쐼,6.8,��,25.4,86.9,0,0,0,0,0,0,996.7,1010
2022-07-25T00:43:00+09:00,4.1,��쐼,6.8,��,25.3,86.9,0,0,0,0,0,0,996.7,1010
2022-07-25T00:44:00+09:00,4,��쐼,6.8,��,25.3,87,0,0,0,0,0,0,996.7,1010
2022-07-25T00:45:00+09:00,3.9,��쐼,6.4,��쐼,25.3,87.1,0,0,0,0,0,0,996.7,1010
2022-07-25T00:46:00+09:00,3.9,��쐼,6.4,��쐼,25.3,87.2,0,0,0,0,0,0,996.7,1010
2022-07-25T00:47:00+09:00,3.9,��쐼,6.4,��쐼,25.3,87.2,0,0,0,0,0,0,996.7,1010
2022-07-25T00:48:00+09:00,3.9,��쐼,6.4,��쐼,25.3,87.3,0,0,0,0,0,0,996.7,1010
2022-07-25T00:49:00+09:00,3.8,��쐼,6.1,��쐼,25.3,87.3,0,0,0,0,0,0,996.7,1010
2022-07-25T00:50:00+09:00,3.7,��쐼,6.1,��쐼,25.3,87.3,0,0,0,0,0,0,996.8,1010.1
2022-07-25T00:51:00+09:00,3.5,��쐼,5.7,��쐼,25.4,87.2,0,0,0,0,0,0,996.8,1010.1
2022-07-25T00:52:00+09:00,3.4,��쐼,5.4,��쐼,25.3,87.1,0,0,0,0,0,0,996.8,1010.1
2022-07-25T00:53:00+09:00,3.4,��쐼,5.4,��쐼,25.3,87.1,0,0,0,0,0,0,996.8,1010.1
2022-07-25T00:54:00+09:00,3.5,��쐼,5.4,��쐼,25.3,87.2,0,0,0,0,0,0,996.7,1010
2022-07-25T00:55:00+09:00,3.5,��쐼,5.4,��쐼,25.3,87.3,0,0,0,0,0,0,996.8,1010.1
2022-07-25T00:56:00+09:00,3.5,��쐼,5.4,��쐼,25.4,87.4,0,0,0,0,0,0,996.8,1010.1
2022-07-25T00:57:00+09:00,3.5,��쐼,5.4,��쐼,25.3,87.2,0,0,0,0,0,0,996.8,1010.1
2022-07-25T00:58:00+09:00,3.3,��쐼,5.4,��쐼,25.3,87.2,0,0,0,0,0,0,996.8,1010.1
2022-07-25T00:59:00+09:00,3.1,��쐼,5.4,��쐼,25.3,87.4,0,0,0,0,0,0,996.7,1010
2022-07-25T01:00:00+09:00,3,��쐼,5.4,��쐼,25.3,87.6,0,0,0,0,0,0,996.7,1010
2022-07-25T01:01:00+09:00,3,��쐼,4.8,��쐼,25.2,87.6,0,0,0,0,0,0,996.7,1010
2022-07-25T01:02:00+09:00,2.9,��,4.8,��쐼,25.2,87.8,0,0,0,0,0,0,996.7,1010
2022-07-25T01:03:00+09:00,2.7,��,4.8,��쐼,25.2,88,0,0,0,0,0,0,996.7,1010
2022-07-25T01:04:00+09:00,2.6,��,4.4,��쐼,25.2,88.1,0,0,0,0,0,0,996.7,1010
2022-07-25T01:05:00+09:00,2.4,��,4.3,��,25.2,88.1,0,0,0,0,0,0,996.7,1010
2022-07-25T01:06:00+09:00,2.4,��,4.3,��,25.3,88.1,0,0,0,0,0,0,996.7,1010
2022-07-25T01:07:00+09:00,2.3,��,3.6,��,25.3,88,0,0,0,0,0,0,996.7,1010
2022-07-25T01:08:00+09:00,2.2,��,3.6,��,25.3,88,0,0,0,0,0,0,996.7,1010
2022-07-25T01:09:00+09:00,2.2,��쐼,3.6,��,25.3,87.8,0,0,0,0,0,0,996.7,1010
2022-07-25T01:10:00+09:00,2.1,��쐼,3.6,��,25.3,87.9,0,0,0,0,0,0,996.7,1010
2022-07-25T01:11:00+09:00,2.1,��쐼,3.7,��,25.2,87.8,0,0,0,0,0,0,996.6,1009.9
2022-07-25T01:12:00+09:00,2.2,��쐼,3.9,��,25.2,87.9,0,0,0,0,0,0,996.6,1009.9
2022-07-25T01:13:00+09:00,2.2,��쐼,3.9,��,25.2,88.2,0,0,0,0,0,0,996.6,1009.9
2022-07-25T01:14:00+09:00,2.2,��쐼,3.9,��,25.2,88.3,0,0,0,0,0,0,996.6,1009.9
2022-07-25T01:15:00+09:00,2.2,��쐼,3.9,��,25.2,88.1,0,0,0,0,0,0,996.6,1009.9
2022-07-25T01:16:00+09:00,2.2,��쐼,3.9,��,25.1,88.1,0,0,0,0,0,0,996.7,1010
2022-07-25T01:17:00+09:00,2.3,��쐼,3.9,��,25.1,88.2,0,0,0,0,0,0,996.7,1010
2022-07-25T01:18:00+09:00,2.4,��쐼,3.9,��,25.1,88.4,0,0,0,0,0,0,996.7,1010
2022-07-25T01:19:00+09:00,2.5,��,3.9,��,25.1,88.6,0,0,0,0,0,0,996.7,1010
2022-07-25T01:20:00+09:00,2.6,��,3.9,��,25.1,88.6,0,0,0,0,0,0,996.7,1010
2022-07-25T01:21:00+09:00,2.5,��쐼,3.9,��,25.1,88.6,0,0,0,0,0,0,996.7,1010
2022-07-25T01:22:00+09:00,2.5,��쐼,3.6,��쐼,25.2,88.8,0,0,0,0,0,0,996.7,1010
2022-07-25T01:23:00+09:00,2.6,��쐼,3.6,��쐼,25.1,88.5,0,0,0,0,0,0,996.7,1010
2022-07-25T01:24:00+09:00,2.6,��쐼,3.6,��쐼,25.1,88.4,0,0,0,0,0,0,996.7,1010
2022-07-25T01:25:00+09:00,2.5,��쐼,3.6,��쐼,25.3,88.6,0,0,0,0,0,0,996.6,1009.9
2022-07-25T01:26:00+09:00,2.5,��쐼,3.6,��쐼,25.3,88.4,0,0,0,0,0,0,996.6,1009.9
2022-07-25T01:27:00+09:00,2.6,��쐼,3.9,��,25.3,88.1,0,0,0,0,0,0,996.6,1009.9
2022-07-25T01:28:00+09:00,2.6,��쐼,4.3,��쐼,25.3,88,0,0,0,0,0,0,996.6,1009.9
2022-07-25T01:29:00+09:00,2.7,��쐼,4.9,��,25.2,87.8,0,0,0,0,0,0,996.6,1009.9
2022-07-25T01:30:00+09:00,2.7,��쐼,4.9,��,25.2,87.9,0,0,0,0,0,0,996.6,1009.9
2022-07-25T01:31:00+09:00,2.7,��쐼,4.9,��,25.2,88,0,0,0,0,0,0,996.6,1009.9
2022-07-25T01:32:00+09:00,2.7,��쐼,4.9,��,25.2,87.9,0,0,0,0,0,0,996.6,1009.9
2022-07-25T01:33:00+09:00,2.8,��쐼,4.9,��,25.1,87.9,0,0,0,0,0,0,996.7,1010
2022-07-25T01:34:00+09:00,2.9,��쐼,4.9,��,25.1,88,0,0,0,0,0,0,996.6,1009.9
2022-07-25T01:35:00+09:00,3,��쐼,4.9,��,25.1,88.2,0,0,0,0,0,0,996.7,1010
2022-07-25T01:36:00+09:00,3.1,��쐼,4.9,��,25,88.4,0,0,0,0,0,0,996.7,1010
2022-07-25T01:37:00+09:00,3.2,��쐼,5.1,��쐼,25.1,88.6,0,0,0,0,0,0,996.6,1009.9
2022-07-25T01:38:00+09:00,3.2,��쐼,5.1,��쐼,25.1,88.7,0,0,0,0,0,0,996.6,1009.9
2022-07-25T01:39:00+09:00,3.2,��쐼,5.1,��쐼,25.1,88.8,0,0,0,0,0,0,996.6,1009.9
2022-07-25T01:40:00+09:00,3.3,��쐼,5.1,��쐼,25,88.7,0,0,0,0,0,0,996.6,1009.9
2022-07-25T01:41:00+09:00,3.3,��쐼,5.1,��쐼,25.1,88.8,0,0,0,0,0,0,996.6,1009.9
2022-07-25T01:42:00+09:00,3.5,��쐼,5.5,��,25.1,88.8,0,0,0,0,0,0,996.6,1009.9
2022-07-25T01:43:00+09:00,3.5,��쐼,5.5,��,25.1,88.7,0,0,0,0,0,0,996.6,1009.9
2022-07-25T01:44:00+09:00,3.5,��쐼,5.5,��,25.1,88.6,0,0,0,0,0,0,996.7,1010
2022-07-25T01:45:00+09:00,3.4,��쐼,5.5,��,25.1,88.5,0,0,0,0,0,0,996.7,1010
2022-07-25T01:46:00+09:00,3.4,��쐼,5.5,��,25.1,88.5,0,0,0,0,0,0,996.6,1009.9
2022-07-25T01:47:00+09:00,3.5,��쐼,5.5,��,25.1,88.8,0,0,0,0,0,0,996.7,1010
2022-07-25T01:48:00+09:00,3.4,��쐼,5.5,��,25.1,88.7,0,0,0,0,0,0,996.6,1009.9
2022-07-25T01:49:00+09:00,3.5,��쐼,5.5,��,25.1,88.6,0,0,0,0,0,0,996.6,1009.9
2022-07-25T01:50:00+09:00,3.5,��쐼,5.5,��,25.1,88.7,0,0,0,0,0,0,996.6,1009.9
2022-07-25T01:51:00+09:00,3.4,��쐼,5.5,��,25.1,88.9,0,0,0,0,0,0,996.6,1009.9
2022-07-25T01:52:00+09:00,3.2,��쐼,5,��쐼,25.1,88.8,0,0,0,0,0,0,996.6,1009.9
2022-07-25T01:53:00+09:00,3.2,��쐼,5,��쐼,25.1,89,0,0,0,0,0,0,996.6,1009.9
2022-07-25T01:54:00+09:00,3.1,��쐼,5,��쐼,25.1,88.9,0,0,0,0,0,0,996.7,1010
2022-07-25T01:55:00+09:00,3.2,��쐼,5,��쐼,25.1,88.7,0,0,0,0,0,0,996.7,1010
2022-07-25T01:56:00+09:00,3.1,��쐼,5,��쐼,25.1,88.9,0,0,0,0,0,0,996.7,1010
2022-07-25T01:57:00+09:00,3,��쐼,4.6,��쐼,25.1,88.7,0,0,0,0,0,0,996.7,1010
2022-07-25T01:58:00+09:00,3,��쐼,4.5,��,25.1,88.8,0,0,0,0,0,0,996.7,1010
2022-07-25T01:59:00+09:00,2.9,��쐼,4.4,�쐼,25.1,88.8,0,0,0,0,0,0,996.6,1009.9
2022-07-25T02:00:00+09:00,2.9,��쐼,4.4,�쐼,25.1,88.7,0,0,0,0,0,0,996.6,1009.9
2022-07-25T02:01:00+09:00,2.9,��쐼,4.4,�쐼,25.1,88.6,0,0,0,0,0,0,996.6,1009.9
2022-07-25T02:02:00+09:00,2.9,��쐼,4.4,�쐼,25,88.8,0,0,0,0,0,0,996.6,1009.9
2022-07-25T02:03:00+09:00,3,��쐼,4.4,�쐼,25,89,0,0,0,0,0,0,996.6,1009.9
2022-07-25T02:04:00+09:00,3.2,��쐼,6.3,��,25,89.1,0,0,0,0,0,0,996.6,1009.9
2022-07-25T02:05:00+09:00,3.3,��쐼,6.3,��,25.1,89.3,0,0,0,0,0,0,996.6,1009.9
2022-07-25T02:06:00+09:00,3.3,��쐼,6.3,��,25.1,89.2,0,0,0,0,0,0,996.7,1010
2022-07-25T02:07:00+09:00,3.4,��쐼,6.3,��,25.1,89,0,0,0,0,0,0,996.7,1010
2022-07-25T02:08:00+09:00,3.4,��쐼,6.3,��,25.1,88.9,0,0,0,0,0,0,996.7,1010
2022-07-25T02:09:00+09:00,3.5,��쐼,6.3,��,25.1,88.8,0,0,0,0,0,0,996.6,1009.9
2022-07-25T02:10:00+09:00,3.5,��쐼,6.3,��,25.1,88.9,0,0,0,0,0,0,996.6,1009.9
2022-07-25T02:11:00+09:00,3.6,��,6.3,��,25.1,89.1,0,0,0,0,0,0,996.7,1010
2022-07-25T02:12:00+09:00,3.7,��쐼,6.3,��,25.2,89.2,0,0,0,0,0,0,996.7,1010
2022-07-25T02:13:00+09:00,3.8,��쐼,6.3,��,25.2,89,0,0,0,0,0,0,996.7,1010
2022-07-25T02:14:00+09:00,3.7,��쐼,6.1,��,25.2,88.7,0,0,0,0,0,0,996.7,1010
2022-07-25T02:15:00+09:00,3.5,��쐼,6.1,��,25.3,88.6,0,0,0,0,0,0,996.7,1010
2022-07-25T02:16:00+09:00,3.5,��쐼,6.1,��,25.3,88.5,0,0,0,0,0,0,996.7,1010
2022-07-25T02:17:00+09:00,3.4,��쐼,6.1,��,25.2,88.3,0,0,0,0,0,0,996.7,1010
2022-07-25T02:18:00+09:00,3.3,��쐼,6.1,��,25.3,88.3,0,0,0,0,0,0,996.7,1010
2022-07-25T02:19:00+09:00,3.3,��쐼,6.1,��,25.2,88.4,0,0,0,0,0,0,996.7,1010
2022-07-25T02:20:00+09:00,3.2,��쐼,6.1,��,25.2,88.4,0,0,0,0,0,0,996.7,1010
2022-07-25T02:21:00+09:00,3.1,��쐼,6.1,��,25.2,88.5,0,0,0,0,0,0,996.7,1010
2022-07-25T02:22:00+09:00,2.9,��쐼,6.1,��,25.3,88.5,0,0,0,0,0,0,996.7,1010
2022-07-25T02:23:00+09:00,2.9,��쐼,4.4,��,25.3,88.5,0,0,0,0,0,0,996.7,1010
2022-07-25T02:24:00+09:00,2.8,��쐼,4.3,�쐼,25.2,88.5,0,0,0,0,0,0,996.7,1010
2022-07-25T02:25:00+09:00,2.8,��쐼,4.3,�쐼,25.2,88.5,0,0,0,0,0,0,996.7,1010
2022-07-25T02:26:00+09:00,2.7,��쐼,4.3,�쐼,25.2,88.6,0,0,0,0,0,0,996.7,1010
2022-07-25T02:27:00+09:00,2.8,��쐼,4.3,�쐼,25.2,88.7,0,0,0,0,0,0,996.7,1010
2022-07-25T02:28:00+09:00,2.9,��쐼,4.5,��쐼,25.2,88.9,0,0,0,0,0,0,996.7,1010
2022-07-25T02:29:00+09:00,2.8,��쐼,4.5,��쐼,25.2,88.9,0,0,0,0,0,0,996.7,1010
2022-07-25T02:30:00+09:00,2.8,��쐼,4.5,��쐼,25.2,89,0,0,0,0,0,0,996.7,1010
2022-07-25T02:31:00+09:00,2.8,��쐼,4.5,��쐼,25.2,88.9,0,0,0,0,0,0,996.7,1010
2022-07-25T02:32:00+09:00,3,��쐼,4.5,��쐼,25.2,89,0,0,0,0,0,0,996.7,1010
2022-07-25T02:33:00+09:00,2.9,��쐼,4.5,��쐼,25.2,89.1,0,0,0,0,0,0,996.7,1010
2022-07-25T02:34:00+09:00,3,��쐼,4.5,��쐼,25.2,89,0,0,0,0,0,0,996.7,1010
2022-07-25T02:35:00+09:00,3,��쐼,4.5,��쐼,25.2,88.8,0,0,0,0,0,0,996.7,1010
2022-07-25T02:36:00+09:00,3,��쐼,4.7,��,25.3,88.9,0,0,0,0,0,0,996.7,1010
2022-07-25T02:37:00+09:00,2.9,��쐼,4.7,��,25.3,88.8,0,0,0,0,0,0,996.7,1010
2022-07-25T02:38:00+09:00,2.9,��쐼,4.7,��,25.3,88.6,0,0,0,0,0,0,996.7,1010
2022-07-25T02:39:00+09:00,2.8,��쐼,4.7,��,25.3,88.4,0,0,0,0,0,0,996.7,1010
2022-07-25T02:40:00+09:00,2.9,��쐼,4.7,��,25.3,88.3,0,0,0,0,0,0,996.7,1010
2022-07-25T02:41:00+09:00,2.8,��쐼,4.7,��,25.3,88.6,0,0,0,0,0,0,996.7,1010
2022-07-25T02:42:00+09:00,2.7,��쐼,4.7,��,25.3,88.7,0,0,0,0,0,0,996.7,1010
2022-07-25T02:43:00+09:00,2.7,��쐼,4.7,��,25.3,88.5,0,0,0,0,0,0,996.7,1010
2022-07-25T02:44:00+09:00,2.5,��쐼,4.7,��,25.3,88.5,0,0,0,0,0,0,996.7,1010
2022-07-25T02:45:00+09:00,2.5,��쐼,4.7,��,25.3,88.6,0,0,0,0,0,0,996.7,1010
2022-07-25T02:46:00+09:00,2.5,��쐼,4,��,25.3,88.7,0,0,0,0,0,0,996.7,1010
2022-07-25T02:47:00+09:00,2.5,��쐼,4,��,25.4,88.8,0,0,0,0,0,0,996.7,1010
2022-07-25T02:48:00+09:00,2.6,��쐼,4.5,��쐼,25.4,88.6,0,0,0,0,0,0,996.7,1010
2022-07-25T02:49:00+09:00,2.6,��쐼,4.5,��쐼,25.4,88.4,0,0,0,0,0,0,996.7,1010
2022-07-25T02:50:00+09:00,2.6,��쐼,4.5,��쐼,25.4,88.2,0,0,0,0,0,0,996.7,1010
2022-07-25T02:51:00+09:00,2.6,��쐼,4.5,��쐼,25.4,88.1,0,0,0,0,0,0,996.8,1010.1
2022-07-25T02:52:00+09:00,2.6,��쐼,4.5,��쐼,25.4,88.1,0,0,0,0,0,0,996.8,1010.1
2022-07-25T02:53:00+09:00,2.6,��쐼,4.5,��쐼,25.3,88,0,0,0,0,0,0,996.8,1010.1
2022-07-25T02:54:00+09:00,2.7,��쐼,4.5,��쐼,25.3,88.1,0,0,0,0,0,0,996.8,1010.1
2022-07-25T02:55:00+09:00,2.7,��쐼,4.5,��쐼,25.3,88.3,0,0,0,0,0,0,996.8,1010.1
2022-07-25T02:56:00+09:00,2.6,��쐼,4.5,��쐼,25.3,88.4,0,0,0,0,0,0,996.8,1010.1
2022-07-25T02:57:00+09:00,2.6,��쐼,4.5,��쐼,25.3,88.6,0,0,0,0,0,0,996.8,1010.1
2022-07-25T02:58:00+09:00,2.4,��쐼,4.4,��쐼,25.3,88.7,0,0,0,0,0,0,996.8,1010.1
2022-07-25T02:59:00+09:00,2.3,��쐼,4.4,��쐼,25.3,88.6,0,0,0,0,0,0,996.8,1010.1
2022-07-25T03:00:00+09:00,2.2,��쐼,4.4,��쐼,25.3,88.5,0,0,0,0,0,0,996.8,1010.1
2022-07-25T03:01:00+09:00,2.3,��쐼,4.4,��쐼,25.3,88.5,0,0,0,0,0,0,996.8,1010.1
2022-07-25T03:02:00+09:00,2.3,��쐼,4.4,��쐼,25.3,88.6,0,0,0,0,0,0,996.9,1010.2
2022-07-25T03:03:00+09:00,2.3,��쐼,4.4,��쐼,25.3,88.8,0,0,0,0,0,0,996.9,1010.2
2022-07-25T03:04:00+09:00,2.3,��쐼,4.3,��쐼,25.3,88.8,0,0,0,0,0,0,996.9,1010.2
2022-07-25T03:05:00+09:00,2.3,��쐼,4.3,��쐼,25.3,88.9,0,0,0,0,0,0,996.9,1010.2
2022-07-25T03:06:00+09:00,2.4,��쐼,4.3,��쐼,25.3,88.7,0,0,0,0,0,0,996.9,1010.2
2022-07-25T03:07:00+09:00,2.4,��쐼,4.3,��쐼,25.3,88.8,0,0,0,0,0,0,996.9,1010.2
2022-07-25T03:08:00+09:00,2.4,��쐼,4.3,��쐼,25.3,89,0,0,0,0,0,0,996.9,1010.2
2022-07-25T03:09:00+09:00,2.5,��쐼,4.3,��쐼,25.3,88.9,0,0,0,0,0,0,996.9,1010.2
2022-07-25T03:10:00+09:00,2.7,��쐼,4.3,��쐼,25.3,88.6,0,0,0,0,0,0,996.9,1010.2
2022-07-25T03:11:00+09:00,2.6,��쐼,4.3,��쐼,25.4,88.5,0,0,0,0,0,0,996.9,1010.2
2022-07-25T03:12:00+09:00,2.7,��쐼,4.3,��쐼,25.3,88.3,0,0,0,0,0,0,996.9,1010.2
2022-07-25T03:13:00+09:00,2.6,��쐼,4.3,��쐼,25.3,88.1,0,0,0,0,0,0,996.9,1010.2
2022-07-25T03:14:00+09:00,2.6,��쐼,4.3,��쐼,25.3,88.2,0,0,0,0,0,0,996.9,1010.2
2022-07-25T03:15:00+09:00,2.6,��쐼,4.3,��쐼,25.3,88.3,0,0,0,0,0,0,996.9,1010.2
2022-07-25T03:16:00+09:00,2.5,��쐼,4.3,��쐼,25.3,88.4,0,0,0,0,0,0,996.9,1010.2
2022-07-25T03:17:00+09:00,2.5,��쐼,4.3,��쐼,25.3,88.2,0,0,0,0,0,0,996.9,1010.2
2022-07-25T03:18:00+09:00,2.6,��쐼,4.3,��쐼,25.3,88.4,0,0,0,0,0,0,996.9,1010.2
2022-07-25T03:19:00+09:00,2.6,��쐼,4.3,��쐼,25.3,88.5,0,0,0,0,0,0,996.9,1010.2
2022-07-25T03:20:00+09:00,2.5,��쐼,3.8,��,25.3,88.7,0,0,0,0,0,0,996.9,1010.2
2022-07-25T03:21:00+09:00,2.5,��쐼,3.8,��쐼,25.3,88.6,0,0,0,0,0,0,996.9,1010.2
2022-07-25T03:22:00+09:00,2.5,��쐼,3.9,��쐼,25.3,88.5,0,0,0,0,0,0,996.9,1010.2
2022-07-25T03:23:00+09:00,2.5,��쐼,3.9,��쐼,25.3,88.7,0,0,0,0,0,0,997,1010.3
2022-07-25T03:24:00+09:00,2.5,��쐼,3.9,��쐼,25.3,88.6,0,0,0,0,0,0,996.9,1010.2
2022-07-25T03:25:00+09:00,2.5,��쐼,4.1,��,25.3,88.6,0,0,0,0,0,0,996.9,1010.2
2022-07-25T03:26:00+09:00,2.6,��쐼,4.1,��,25.3,88.4,0,0,0,0,0,0,996.9,1010.2
2022-07-25T03:27:00+09:00,2.6,��,4.1,��,25.3,88.4,0,0,0,0,0,0,996.9,1010.2
2022-07-25T03:28:00+09:00,2.5,��쐼,4.1,��,25.3,88.5,0,0,0,0,0,0,996.9,1010.2
2022-07-25T03:29:00+09:00,2.4,��쐼,4.1,��,25.4,88.5,0,0,0,0,0,0,996.9,1010.2
2022-07-25T03:30:00+09:00,2.4,��,4.1,��,25.3,88.3,0,0,0,0,0,0,996.9,1010.2
2022-07-25T03:31:00+09:00,2.3,��,4.1,��,25.3,88.2,0,0,0,0,0,0,996.9,1010.2
2022-07-25T03:32:00+09:00,2.2,��쐼,4.1,��,25.4,88.6,0,0,0,0,0,0,996.9,1010.2
2022-07-25T03:33:00+09:00,2.2,��쐼,4.1,��,25.4,88.3,0,0,0,0,0,0,996.9,1010.2
2022-07-25T03:34:00+09:00,2.2,��쐼,4.1,��,25.4,88,0,0,0,0,0,0,996.9,1010.2
2022-07-25T03:35:00+09:00,2.2,��쐼,4.7,��,25.3,88,0,0,0,0,0,0,996.9,1010.2
2022-07-25T03:36:00+09:00,2.2,��쐼,4.7,��,25.3,88,0,0,0,0,0,0,996.9,1010.2
2022-07-25T03:37:00+09:00,2.3,��쐼,4.7,��,25.3,88.1,0,0,0,0,0,0,997,1010.3
2022-07-25T03:38:00+09:00,2.4,��쐼,4.7,��,25.3,88.2,0,0,0,0,0,0,996.9,1010.2
2022-07-25T03:39:00+09:00,2.5,��쐼,4.7,��,25.3,88.3,0,0,0,0,0,0,996.9,1010.2
2022-07-25T03:40:00+09:00,2.6,��쐼,4.9,��,25.3,88.4,0,0,0,0,0,0,996.9,1010.2
2022-07-25T03:41:00+09:00,2.8,��쐼,4.9,��,25.3,88.3,0,0,0,0,0,0,996.9,1010.2
2022-07-25T03:42:00+09:00,2.9,��쐼,4.9,��,25.3,88.3,0,0,0,0,0,0,996.9,1010.2
2022-07-25T03:43:00+09:00,2.9,��쐼,4.9,��,25.3,88.4,0,0,0,0,0,0,996.9,1010.2
2022-07-25T03:44:00+09:00,2.9,��쐼,4.9,��,25.3,88.5,0,0,0,0,0,0,996.9,1010.2
2022-07-25T03:45:00+09:00,2.9,��쐼,4.9,��,25.3,88.3,0,0,0,0,0,0,996.9,1010.2
2022-07-25T03:46:00+09:00,2.9,��쐼,4.9,��,25.3,88.4,0,0,0,0,0,0,996.9,1010.2
2022-07-25T03:47:00+09:00,3,��쐼,4.9,��,25.3,88.5,0,0,0,0,0,0,996.9,1010.2
2022-07-25T03:48:00+09:00,3.1,��쐼,5.1,��,25.2,88.5,0,0,0,0,0,0,996.9,1010.2
2022-07-25T03:49:00+09:00,3.1,��쐼,5.1,��,25.3,88.7,0,0,0,0,0,0,996.9,1010.2
2022-07-25T03:50:00+09:00,3,��쐼,5.1,��,25.2,88.7,0,0,0,0,0,0,996.9,1010.2
2022-07-25T03:51:00+09:00,3.1,��쐼,5.1,��,25.3,88.7,0,0,0,0,0,0,996.9,1010.2
2022-07-25T03:52:00+09:00,3.2,��쐼,5.1,��,25.3,88.8,0,0,0,0,0,0,996.9,1010.2
2022-07-25T03:53:00+09:00,3.3,��쐼,5.1,��,25.3,88.7,0,0,0,0,0,0,996.9,1010.2
2022-07-25T03:54:00+09:00,3.4,��쐼,5.1,��,25.3,88.6,0,0,0,0,0,0,997,1010.3
2022-07-25T03:55:00+09:00,3.4,��쐼,5.1,��,25.3,88.5,0,0,0,0,0,0,997,1010.3
2022-07-25T03:56:00+09:00,3.4,��쐼,5.1,��,25.3,88.5,0,0,0,0,0,0,997,1010.3
2022-07-25T03:57:00+09:00,3.4,��쐼,5.1,��,25.3,88.5,0,0,0,0,0,0,996.9,1010.2
2022-07-25T03:58:00+09:00,3.3,��쐼,5.1,��쐼,25.3,88.3,0,0,0,0,0,0,997,1010.3
2022-07-25T03:59:00+09:00,3.3,��쐼,5.1,��쐼,25.3,88.2,0,0,0,0,0,0,997,1010.3
2022-07-25T04:00:00+09:00,3.3,��쐼,5.1,��쐼,25.3,88.3,0,0,0,0,0,0,997,1010.3
2022-07-25T04:01:00+09:00,3.2,��쐼,5.1,��쐼,25.3,88.4,0,0,0,0,0,0,997,1010.3
2022-07-25T04:02:00+09:00,3.1,��쐼,5,��,25.3,88.5,0,0,0,0,0,0,997,1010.3
2022-07-25T04:03:00+09:00,3.1,��쐼,5,��,25.3,88.3,0,0,0,0,0,0,997,1010.3
2022-07-25T04:04:00+09:00,3.1,��쐼,5.1,��쐼,25.3,88.3,0,0,0,0,0,0,997,1010.3
2022-07-25T04:05:00+09:00,3.1,��쐼,5.1,��쐼,25.3,88.4,0,0,0,0,0,0,997,1010.3
2022-07-25T04:06:00+09:00,3.2,��쐼,5.1,��쐼,25.3,88.5,0,0,0,0,0,0,997,1010.3
2022-07-25T04:07:00+09:00,3.1,��쐼,5.1,��쐼,25.3,88.5,0,0,0,0,0,0,997,1010.3
2022-07-25T04:08:00+09:00,3.1,��쐼,5.1,��쐼,25.3,88.5,0,0,0,0,0,0,997,1010.3
2022-07-25T04:09:00+09:00,3,��쐼,5.1,��쐼,25.2,88.6,0,0,0,0,0,0,997,1010.3
2022-07-25T04:10:00+09:00,2.9,��쐼,5.1,��쐼,25.3,88.7,0,0,0,0,0,0,997,1010.3
2022-07-25T04:11:00+09:00,2.8,��쐼,5.1,��쐼,25.3,88.8,0,0,0,0,0,0,997,1010.3
2022-07-25T04:12:00+09:00,2.8,��쐼,5.1,��쐼,25.3,88.7,0,0,0,0,0,0,997,1010.3
2022-07-25T04:13:00+09:00,2.8,��쐼,5.1,��쐼,25.2,88.5,0,0,0,0,0,0,997,1010.3
2022-07-25T04:14:00+09:00,2.7,��쐼,4.6,��쐼,25.3,88.6,0,0,0,0,0,0,997,1010.3
2022-07-25T04:15:00+09:00,2.6,��쐼,4.6,��쐼,25.3,88.7,0,0,0,0,0,0,997,1010.3
2022-07-25T04:16:00+09:00,2.5,��쐼,4.6,��쐼,25.2,88.7,0,0,0,0,0,0,997,1010.3
2022-07-25T04:17:00+09:00,2.6,��쐼,4.6,��쐼,25.3,88.7,0,0,0,0,0,0,997.1,1010.4
2022-07-25T04:18:00+09:00,2.5,��쐼,4.6,��쐼,25.3,88.8,0,0,0,0,0,0,997.1,1010.4
2022-07-25T04:19:00+09:00,2.6,��쐼,4.6,��쐼,25.3,88.7,0,0,0,0,0,0,997.1,1010.4
2022-07-25T04:20:00+09:00,2.7,��쐼,4.6,��쐼,25.2,88.6,0,0,0,0,0,0,997.1,1010.4
2022-07-25T04:21:00+09:00,2.8,��쐼,4.6,��쐼,25.3,88.7,0,0,0,0,0,0,997.1,1010.4
2022-07-25T04:22:00+09:00,2.9,��쐼,4.6,��쐼,25.2,88.6,0,0,0,0,0,0,997.1,1010.4
2022-07-25T04:23:00+09:00,2.9,��쐼,4.5,��쐼,25.3,88.7,0,0,0,0,0,0,997.1,1010.4
2022-07-25T04:24:00+09:00,2.9,��쐼,4.5,��쐼,25.2,88.6,0,0,0,0,0,0,997.1,1010.4
2022-07-25T04:25:00+09:00,3,��쐼,4.5,��쐼,25.3,88.6,0,0,0,0,0,0,997.1,1010.4
2022-07-25T04:26:00+09:00,3,��쐼,4.5,��쐼,25.3,88.6,0,0,0,0,0,0,997.1,1010.4
2022-07-25T04:27:00+09:00,3,��쐼,4.4,��쐼,25.3,88.6,0,0,0,0,0,0,997.1,1010.4
2022-07-25T04:28:00+09:00,3.1,��쐼,4.4,��쐼,25.3,88.4,0,0,0,0,0,0,997.1,1010.4
2022-07-25T04:29:00+09:00,3,��쐼,4.5,��쐼,25.3,88.2,0,0,0,0,0,0,997.1,1010.4
2022-07-25T04:30:00+09:00,3,��쐼,4.5,��쐼,25.3,88.3,0,0,0,0,0,0,997.1,1010.4
2022-07-25T04:31:00+09:00,3.1,��쐼,4.5,��쐼,25.3,88.5,0,0,0,0,0,0,997.1,1010.4
2022-07-25T04:32:00+09:00,3,��쐼,4.7,��,25.2,88.5,0,0,0,0,0,0,997.1,1010.4
2022-07-25T04:33:00+09:00,3,��쐼,4.7,��,25.2,88.6,0,0,0,0,0,0,997.1,1010.4
2022-07-25T04:34:00+09:00,2.9,��쐼,4.7,��,25.2,88.8,0,0,0,0,0,0,997.1,1010.4
2022-07-25T04:35:00+09:00,2.8,��쐼,4.7,��,25.2,88.9,0,0,0,0,0,0,997.1,1010.4
2022-07-25T04:36:00+09:00,2.8,��쐼,4.7,��,25.3,88.8,0,0,0,0,0,0,997.1,1010.4
2022-07-25T04:37:00+09:00,2.8,��쐼,4.7,��,25.3,88.7,0,0,0,0,0,0,997.1,1010.4
2022-07-25T04:38:00+09:00,2.7,��쐼,4.7,��,25.2,88.5,0,0,0,0,0,0,997.1,1010.4
2022-07-25T04:39:00+09:00,2.6,��쐼,4.7,��,25.2,88.6,0,0,0,0,0,0,997.1,1010.4
2022-07-25T04:40:00+09:00,2.6,��쐼,4.7,��,25.2,88.7,0,0,0,0,0,0,997.1,1010.4
2022-07-25T04:41:00+09:00,2.5,��쐼,4.7,��,25.3,88.8,0,0,0,0,0,0,997.1,1010.4
2022-07-25T04:42:00+09:00,2.4,��쐼,3.7,��쐼,25.2,88.7,0,0,0,0,0,0,997.1,1010.4
2022-07-25T04:43:00+09:00,2.3,��쐼,3.7,��쐼,25.2,88.7,0,0,0,0,0,0,997.1,1010.4
2022-07-25T04:44:00+09:00,2.3,��쐼,3.7,��쐼,25.2,88.6,0,0,0,0,0,0,997.1,1010.4
2022-07-25T04:45:00+09:00,2.4,��쐼,4,��쐼,25.3,88.7,0,0,0,0,0,0,997.1,1010.4
2022-07-25T04:46:00+09:00,2.4,��쐼,4,��쐼,25.3,88.6,0,0,0,0,0,0,997.2,1010.5
2022-07-25T04:47:00+09:00,2.3,��쐼,4,��쐼,25.3,88.5,0,0,0,0,0,0,997.2,1010.5
2022-07-25T04:48:00+09:00,2.3,��쐼,4,��쐼,25.3,88.3,0,0,0,0,0,0,997.2,1010.5
2022-07-25T04:49:00+09:00,2.3,��쐼,4,��쐼,25.3,88.2,0,0,0,0,0,0,997.2,1010.5
2022-07-25T04:50:00+09:00,2.2,��쐼,4,��쐼,25.3,88.2,0,0,0,0,0,0,997.2,1010.5
2022-07-25T04:51:00+09:00,2.1,��쐼,4,��쐼,25.3,88.2,0,0,0,0,0,0,997.2,1010.5
2022-07-25T04:52:00+09:00,2.1,��쐼,4,��쐼,25.3,88.3,0,0,0,0,0,0,997.2,1010.5
2022-07-25T04:53:00+09:00,2.2,��쐼,4,��쐼,25.2,88.3,0,0,0,0,0,0,997.2,1010.5
2022-07-25T04:54:00+09:00,2.2,��쐼,4,��쐼,25.2,88.4,0,0,0,0,0,0,997.2,1010.5
2022-07-25T04:55:00+09:00,2.2,��쐼,4,��,25.2,88.6,0,0,0,0,0,0,997.1,1010.4
2022-07-25T04:56:00+09:00,2.2,��쐼,4.2,��,25.2,88.8,0,0,0,0,0,0,997.1,1010.4
2022-07-25T04:57:00+09:00,2.3,��쐼,4.2,��,25.1,88.8,0,0,0,0,0,0,997.1,1010.4
2022-07-25T04:58:00+09:00,2.5,��,4.6,��,25.1,88.9,0,0,0,0,0,0,997.1,1010.4
2022-07-25T04:59:00+09:00,2.7,��,5.2,��,25.2,88.9,0,0,0,0,0,0,997.1,1010.4
2022-07-25T05:00:00+09:00,2.8,��,5.2,��,25.2,88.9,0,0,0,0,0,0,997.1,1010.4
2022-07-25T05:01:00+09:00,2.9,��,5.2,��,25.2,89,0,0,0,0,0,0,997.1,1010.4
2022-07-25T05:02:00+09:00,3,��,5.2,��,25.2,89,0,0,0,0,0,0,997.1,1010.4
2022-07-25T05:03:00+09:00,2.9,��,5.2,��,25.2,89,0,0,0,0,0,0,997.1,1010.4
2022-07-25T05:04:00+09:00,3,��,5.2,��,25.2,88.8,0,0,0,0,0,0,997.1,1010.4
2022-07-25T05:05:00+09:00,3,��,5.2,��,25.2,88.7,0,0,0,0,0,0,997.2,1010.5
2022-07-25T05:06:00+09:00,3.1,��,5.2,��,25.2,88.7,0,0,0,0,0,0,997.2,1010.5
2022-07-25T05:07:00+09:00,3,��,5.2,��,25.2,88.8,0,0,0,0,0,0,997.2,1010.5
2022-07-25T05:08:00+09:00,2.9,��쐼,5.2,��,25.3,88.8,0,0,0,0,0,0,997.2,1010.5
2022-07-25T05:09:00+09:00,2.7,��쐼,4.6,��쐼,25.2,88.7,0,0,0,0,0,0,997.3,1010.6
2022-07-25T05:10:00+09:00,2.7,��쐼,4.6,��쐼,25.2,88.6,0,0,0,0,0,0,997.3,1010.6
2022-07-25T05:11:00+09:00,2.7,��쐼,4.6,��쐼,25.1,88.5,0,0,0,0,0,0,997.3,1010.6
2022-07-25T05:12:00+09:00,2.7,��쐼,4.6,��쐼,25.1,88.7,0,0,0,0,0,0,997.3,1010.6
2022-07-25T05:13:00+09:00,2.7,��쐼,4.6,��쐼,25.1,88.8,0,0,0,0,0,0,997.3,1010.6
2022-07-25T05:14:00+09:00,2.6,��쐼,4.4,��,25.2,89,0,0,0,0,0,0,997.4,1010.7
2022-07-25T05:15:00+09:00,2.5,��쐼,4.4,��,25.2,89,0,0,0,0,0,0,997.4,1010.7
2022-07-25T05:16:00+09:00,2.4,��쐼,4.4,��,25.2,88.8,0,0,0,0,0,0,997.4,1010.7